Total_Precipitation_Accumulation
0.05 0.05 0.04 0.04 0.05 0.08 0.08 0.12 0.17 0.09 0.15 0.27 0.28 0.15 0.02 0.00 0.00 0.00 0.00 0.00 0.00 0.00 0.00 0.00 0.00 0.01 0.01 0.00 0.00 0.00 0.00 0.01 0.01 0.00 0.00 0.00 0.00 0.00 0.00 0.03 0.04 0.02 0.01 0.01
0.07 0.06 0.06 0.05 0.06 0.11 0.11 0.17 0.13 0.20 0.33 0.21 0.14 0.11 0.04 0.01 0.00 0.00 0.00 0.00 0.00 0.00 0.00 0.00 0.00 0.00 0.00 0.00 0.00 0.00 0.00 0.00 0.00 0.04 0.03 0.00 0.00 0.00 0.00 0.00 0.02 0.11 0.11 0.01
0.04 0.06 0.08 0.08 0.08 0.16 0.21 0.30 0.23 0.21 0.53 0.29 0.09 0.09 0.08 0.04 0.00 0.00 0.00 0.00 0.00 0.00 0.00 0.00 0.00 0.00 0.00 0.00 0.00 0.00 0.00 0.01 0.05 0.08 0.11 0.04 0.01 0.00 0.01 0.01 0.01 0.01 0.05 0.02
0.04 0.03 0.05 0.09 0.08 0.18 0.25 0.28 0.24 0.15 0.27 0.23 0.14 0.10 0.12 0.04 0.02 0.01 0.00 0.00 0.00 0.00 0.00 0.00 0.00 0.00 0.00 0.00 0.00 0.00 0.01 0.02 0.02 0.04 0.03 0.01 0.06 0.04 0.03 0.05 0.02 0.02 0.01 0.01
0.04 0.02 0.03 0.05 0.08 0.21 0.30 0.27 0.10 0.12 0.14 0.12 0.19 0.20 0.22 0.05 0.03 0.03 0.03 0.01 0.01 0.01 0.00 0.00 0.00 0.01 0.01 0.00 0.00 0.00 0.00 0.00 0.00 0.00 0.01 0.00 0.00 0.01 0.01 0.01 0.01 0.00 0.00 0.01
0.20 0.10 0.03 0.02 0.06 0.23 0.30 0.20 0.10 0.25 0.15 0.04 0.22 0.25 0.13 0.09 0.07 0.06 0.03 0.01 0.03 0.02 0.01 0.00 0.00 0.01 0.01 0.00 0.00 0.00 0.00 0.01 0.00 0.00 0.00 0.00 0.00 0.00 0.00 0.00 0.00 0.00 0.00 0.00
0.30 0.22 0.09 0.05 0.04 0.13 0.17 0.16 0.13 0.23 0.19 0.13 0.07 0.08 0.12 0.09 0.05 0.07 0.05 0.04 0.10 0.04 0.01 0.01 0.02 0.00 0.00 0.00 0.00 0.00 0.00 0.01 0.02 0.01 0.00 0.00 0.00 0.00 0.00 0.00 0.00 0.00 0.00 0.00
0.19 0.22 0.21 0.12 0.08 0.09 0.17 0.14 0.28 0.26 0.13 0.05 0.09 0.10 0.09 0.07 0.09 0.08 0.09 0.11 0.08 0.10 0.07 0.11 0.08 0.04 0.04 0.01 0.00 0.00 0.00 0.00 0.04 0.02 0.00 0.00 0.00 0.00 0.00 0.00 0.00 0.00 0.00 0.00
0.13 0.16 0.21 0.23 0.16 0.11 0.20 0.17 0.20 0.35 0.37 0.08 0.01 0.04 0.08 0.09 0.11 0.11 0.07 0.13 0.12 0.15 0.16 0.15 0.12 0.09 0.06 0.04 0.03 0.01 0.01 0.01 0.04 0.05 0.02 0.00 0.00 0.00 0.00 0.00 0.00 0.00 0.00 0.00
0.09 0.13 0.16 0.19 0.21 0.20 0.26 0.30 0.15 0.27 0.35 0.11 0.09 0.06 0.07 0.07 0.13 0.21 0.17 0.23 0.18 0.21 0.23 0.15 0.09 0.07 0.07 0.08 0.11 0.06 0.04 0.05 0.04 0.05 0.04 0.01 0.00 0.00 0.01 0.02 0.03 0.00 0.00 0.00
0.07 0.08 0.14 0.20 0.23 0.26 0.36 0.45 0.13 0.18 0.27 0.08 0.04 0.04 0.08 0.10 0.12 0.21 0.28 0.32 0.27 0.27 0.24 0.13 0.09 0.08 0.06 0.02 0.07 0.09 0.05 0.05 0.05 0.05 0.08 0.02 0.00 0.02 0.07 0.10 0.02 0.00 0.00 0.00
0.08 0.06 0.07 0.13 0.22 0.31 0.47 0.64 0.28 0.14 0.22 0.13 0.04 0.03 0.04 0.08 0.14 0.27 0.31 0.25 0.11 0.05 0.08 0.09 0.11 0.10 0.08 0.03 0.04 0.04 0.09 0.01 0.02 0.00 0.01 0.00 0.00 0.06 0.02 0.00 0.01 0.00 0.00 0.00
0.10 0.11 0.08 0.10 0.16 0.31 0.63 0.70 0.27 0.36 0.72 0.30 0.06 0.05 0.01 0.01 0.05 0.19 0.39 0.11 0.11 0.13 0.19 0.25 0.19 0.15 0.08 0.06 0.02 0.03 0.02 0.03 0.07 0.09 0.03 0.03 0.06 0.02 0.00 0.00 0.00 0.00 0.00 0.00
0.07 0.12 0.16 0.14 0.16 0.30 0.66 0.74 0.40 0.33 0.46 0.27 0.09 0.00 0.02 0.01 0.02 0.04 0.06 0.07 0.07 0.15 0.24 0.26 0.14 0.10 0.05 0.05 0.02 0.01 0.01 0.03 0.02 0.07 0.05 0.03 0.10 0.12 0.01 0.00 0.00 0.00 0.00 0.00
0.07 0.11 0.20 0.22 0.21 0.41 0.61 0.64 0.46 0.18 0.17 0.26 0.06 0.01 0.00 0.01 0.04 0.05 0.08 0.12 0.14 0.23 0.29 0.26 0.08 0.06 0.07 0.03 0.04 0.01 0.01 0.02 0.04 0.08 0.06 0.06 0.08 0.02 0.00 0.00 0.00 0.00 0.00 0.00
0.06 0.08 0.16 0.30 0.34 0.64 0.96 1.38 0.89 0.29 0.18 0.28 0.18 0.05 0.00 0.00 0.02 0.05 0.10 0.19 0.30 0.43 0.39 0.21 0.13 0.11 0.12 0.10 0.06 0.03 0.05 0.01 0.00 0.02 0.00 0.00 0.00 0.00 0.00 0.00 0.00 0.00 0.01 0.01
0.07 0.08 0.15 0.39 0.52 0.60 0.48 0.32 0.28 0.25 0.20 0.26 0.12 0.10 0.03 0.01 0.06 0.07 0.13 0.24 0.51 0.54 0.57 0.34 0.12 0.12 0.20 0.12 0.06 0.11 0.04 0.01 0.00 0.00 0.00 0.00 0.00 0.00 0.00 0.00 0.00 0.00 0.00 0.00
0.15 0.12 0.25 0.53 0.54 0.53 0.46 0.05 0.01 0.04 0.22 0.14 0.11 0.13 0.08 0.03 0.08 0.11 0.13 0.28 0.35 0.32 0.27 0.18 0.09 0.13 0.29 0.31 0.05 0.00 0.00 0.00 0.00 0.00 0.00 0.00 0.00 0.00 0.00 0.00 0.00 0.00 0.00 0.00
0.27 0.42 0.80 0.89 0.63 0.70 0.42 0.09 0.08 0.11 0.17 0.11 0.08 0.12 0.19 0.04 0.08 0.12 0.19 0.18 0.28 0.18 0.19 0.07 0.09 0.14 0.22 0.14 0.02 0.00 0.00 0.00 0.00 0.00 0.01 0.02 0.02 0.01 0.03 0.06 0.07 0.08 0.08 0.09
0.52 0.67 0.69 0.67 0.49 0.42 0.37 0.60 0.62 0.49 0.18 0.09 0.07 0.20 0.26 0.08 0.09 0.13 0.23 0.14 0.14 0.15 0.09 0.11 0.19 0.13 0.07 0.01 0.00 0.00 0.00 0.01 0.03 0.04 0.04 0.05 0.07 0.07 0.11 0.15 0.19 0.21 0.23 0.24
0.22 0.33 0.46 0.64 0.51 0.34 0.36 0.42 0.29 0.23 0.14 0.04 0.12 0.14 0.09 0.13 0.19 0.08 0.13 0.17 0.07 0.14 0.16 0.16 0.17 0.08 0.06 0.01 0.00 0.00 0.00 0.00 0.01 0.03 0.04 0.05 0.07 0.09 0.11 0.12 0.12 0.13 0.15 0.17
0.04 0.12 0.37 0.42 0.39 0.36 0.23 0.17 0.12 0.12 0.12 0.06 0.10 0.09 0.07 0.11 0.33 0.11 0.06 0.19 0.21 0.15 0.09 0.08 0.10 0.06 0.02 0.01 0.01 0.01 0.01 0.01 0.01 0.01 0.02 0.03 0.04 0.06 0.08 0.09 0.11 0.12 0.12 0.12
0.01 0.01 0.04 0.07 0.12 0.08 0.08 0.06 0.06 0.05 0.04 0.06 0.06 0.08 0.05 0.12 0.31 0.08 0.08 0.07 0.25 0.14 0.10 0.09 0.06 0.04 0.02 0.01 0.01 0.01 0.01 0.02 0.02 0.03 0.04 0.04 0.05 0.06 0.07 0.08 0.10 0.10 0.10 0.14
0.00 0.00 0.00 0.01 0.01 0.02 0.03 0.04 0.03 0.03 0.05 0.07 0.04 0.01 0.01 0.08 0.11 0.10 0.07 0.06 0.03 0.05 0.06 0.06 0.08 0.04 0.04 0.04 0.04 0.03 0.04 0.05 0.05 0.07 0.06 0.07 0.07 0.08 0.09 0.09 0.10 0.07 0.09 0.13
0.00 0.00 0.01 0.02 0.04 0.04 0.05 0.04 0.04 0.05 0.07 0.06 0.04 0.01 0.00 0.01 0.03 0.03 0.02 0.04 0.04 0.03 0.06 0.07 0.07 0.06 0.07 0.08 0.08 0.08 0.08 0.09 0.09 0.09 0.08 0.08 0.09 0.06 0.09 0.12 0.12 0.10 0.10 0.11
0.00 0.01 0.03 0.03 0.06 0.06 0.05 0.06 0.06 0.06 0.06 0.02 0.01 0.00 0.01 0.04 0.03 0.03 0.04 0.04 0.04 0.07 0.09 0.10 0.09 0.09 0.11 0.12 0.12 0.12 0.12 0.12 0.12 0.12 0.12 0.12 0.12 0.11 0.12 0.12 0.11 0.11 0.10 0.09
0.00 0.02 0.03 0.04 0.04 0.06 0.06 0.06 0.06 0.04 0.03 0.01 0.01 0.01 0.03 0.04 0.04 0.07 0.09 0.13 0.15 0.14 0.14 0.15 0.15 0.13 0.13 0.13 0.12 0.13 0.13 0.13 0.13 0.12 0.13 0.13 0.13 0.12 0.09 0.09 0.12 0.08 0.06 0.03